Location: Courteuil
(49.2000°N, 2.5333°E)
Time: 23:41:26
(UTC+00:00)

CZ-4B R/B - Pass Details

Date: 06 September 2025
Orbit: 699 x 798 km, 98.9° (Epoch: 10 December)

Event Time Altitude Azimuth Distance (km) Brightness Sun altitude
Exits shadow 19:17:33 12° 115° (ESE) 1,999 5.0 -9.6°
Maximum altitude 19:21:00 27° 62° (ENE) 1,333 4.4 -10.1°
Drops below altitude 10° 19:25:00 10° 5° (N) 2,193 6.1 -10.7°
Sets 19:27:33 0° 354° (N) 3,128 7.1 -11.1°
